Weather Roundup
Issued by NWS Chicago, IL

Home | Current Version | Previous Version | Graphics & Text | Print | Product List | Glossary On
Versions: 1 2 3 4 5 6 7 8 9 10 11 12 13 14 15 16 17 18 19 20 21 22 23 24 25 26 27 28 29 30 31 32 33 34 35 36 37 38 39 40 41 42 43 44 45 46 47 48 49 50
000
NZUS59 KLOT 242313
HRRLOT

CHICAGO AREA WEATHER ROUNDUP
NATIONAL WEATHER SERVICE CHICAGO/ROMEOVILLE IL
600 PM CDT SUN MAY 24 2015

NOTE: "FAIR" INDICATES FEW OR NO CLOUDS BELOW 12,000 FEET WITH NO
SIGNIFICANT WEATHER AND/OR OBSTRUCTIONS TO VISIBILITY.

* THESE STATIONS ARE NOT UNDER NWS QUALITY CONTROL. THEY ALSO MAY NOT
  REPORT WEATHER SUCH AS PRECIPITATION OR FOG.

ILZ005-006-012>014-019>023-250000-
NORTHEAST ILLINOIS

CITY           SKY/WX    TMP DP  RH WIND       PRES   REMARKS
OHARE          CLOUDY    64  61  90 E9        29.96F
MIDWAY         CLOUDY    67  64  90 NE7       29.95F
AURORA         MOSUNNY   73  66  78 E13       29.92F HAZE
LANSING*       CLOUDY    74  62  66 CALM      29.96F
JOLIET*        PTSUNNY   72  70  94 NE5       29.94F
WAUKEGAN       CLOUDY    56  52  86 E7        29.98F
DUPAGE AIRPORT PTSUNNY   68  63  84 E12       29.94F
WHEELING       LGT RAIN  62  59  90 NE6       29.98F FOG
KANKAKEE*      PTSUNNY   82  62  51 S20G28    29.95F HX  82
MORRIS*        PTSUNNY   74  68  83 E8        29.91F
LEWIS AIRPORT* PTSUNNY   69  68  97 E9        29.94F FOG
NORTHERLY IS     N/A     58  55  90 N6          N/A
$$

WIZ051-052-058>065-066-070>072-250000-
SOUTHEAST WISCONSIN

CITY           SKY/WX    TMP DP  RH WIND       PRES   REMARKS
MILWAUKEE      CLOUDY    52  49  89 NE7       30.02F FOG
KENOSHA*       CLOUDY    58  54  86 E10       29.99F
RACINE*        LGT RAIN  55  51  86 E8        30.03F FOG
BURLINGTON     CLOUDY    58  54  85 E10       29.98F
WAUKESHA       CLOUDY    54  52  94 E12       30.02F
WEST BEND      LGT RAIN  54  52  94 E8        30.02F
$$

INZ001>003-010>013-019-020-250000-
NORTHWEST INDIANA

CITY           SKY/WX    TMP DP  RH WIND       PRES   REMARKS
GARY*          CLOUDY    72  66  83 CALM      29.97F
MICHIGAN CITY* NOT AVBL
RENSSELAER*    NOT AVBL
VALPARAISO     PTSUNNY   82  57  42 S15G25    29.98F HX  82
$$

LMZ740>746-250000-
SOUTHERN LAKE MICHIGAN

STATION/POSITION TIME  SKY/WX   TEMP WIND        PRES    VSBY
                                AIR  DIR/SP/G
                 (UTC)          (F)  (DEG/KT/KT) (MB)    (MI)
HARRISON CRIB    2200            58  180/  2/  3   N/A
BURNHAM HARBOR   2300            57  350/  5/  7   N/A
CALUMET HARBOR   2200            65  300/  7/  9   N/A
BURNS HARBOR     2200            67  220/  4/ 15 1015.9S
MICHIGAN CITY    2200            81  130/ 11/ 14   N/A
$$

ABBREVIATIONS USED IN REMARKS
   TC - TEMPERATURE IN CELSIUS
  WCI - WIND CHILL INDEX
   HX - HEAT INDEX
  VSB - VISIBILITY
$$


USA.gov is the U.S. government's official web portal to all federal, state and local government web resources and services.